EWG86GR EDDS-LIMC

Flight info

Callsign EWG86GR
Flight time N/A
Altitude 30000
Route ROTWE5B/25 ROTWE Y126 TUBLO N850 NATOR DCT TRA DCT BASGO Z424 RIXUV
Aircraft A319/M-SDE3FGHIRWY/LB1

Departure

Time N/A
Airport Stuttgart Airport (EDDS)

Arrival

Time 2026-05-06 19:23
Airport Milan Malpensa International Airport (LIMC)
Time Latitude Longitude Altitude Speed Heading
2026-05-06 19:03 46.37227 8.46975 19983 ft 321 kts 181°
2026-05-06 19:03 46.34968 8.47033 19928 ft 321 kts 181°
2026-05-06 19:04 46.33490 8.47071 19936 ft 321 kts 181°
2026-05-06 19:04 46.31252 8.47126 19933 ft 321 kts 181°
2026-05-06 19:04 46.29015 8.47178 19931 ft 321 kts 181°
2026-05-06 19:04 46.26780 8.47247 19927 ft 322 kts 179°
2026-05-06 19:05 46.24543 8.47465 19921 ft 322 kts 178°
2026-05-06 19:05 46.22322 8.47789 19934 ft 321 kts 176°
2026-05-06 19:05 46.20100 8.48154 19925 ft 321 kts 176°
2026-05-06 19:05 46.17876 8.48519 19926 ft 322 kts 176°
2026-05-06 19:06 46.15654 8.48872 19918 ft 321 kts 176°
2026-05-06 19:06 46.13435 8.49209 19918 ft 321 kts 177°
2026-05-06 19:06 46.11225 8.49623 19919 ft 321 kts 171°
2026-05-06 19:06 46.09076 8.50562 19789 ft 325 kts 163°
2026-05-06 19:07 46.06952 8.51690 19337 ft 325 kts 163°
2026-05-06 19:07 46.04845 8.52828 18890 ft 323 kts 162°
2026-05-06 19:07 46.02748 8.53970 18635 ft 321 kts 163°
2026-05-06 19:07 46.00659 8.55103 18402 ft 321 kts 163°
2026-05-06 19:08 45.98573 8.56232 18148 ft 320 kts 162°
2026-05-06 19:08 45.96490 8.57357 17924 ft 319 kts 163°
2026-05-06 19:08 45.94403 8.58478 17461 ft 320 kts 163°
2026-05-06 19:08 45.92316 8.59599 16983 ft 319 kts 163°
2026-05-06 19:09 45.90258 8.60790 16502 ft 320 kts 156°
2026-05-06 19:09 45.88391 8.62546 16035 ft 323 kts 144°
2026-05-06 19:09 45.86647 8.64585 15595 ft 323 kts 144°
2026-05-06 19:09 45.84903 8.66614 15142 ft 323 kts 144°
2026-05-06 19:10 45.83150 8.68643 14670 ft 324 kts 144°
2026-05-06 19:10 45.81401 8.70661 14231 ft 323 kts 144°
2026-05-06 19:10 45.79655 8.72676 13797 ft 322 kts 144°
2026-05-06 19:10 45.77913 8.74688 13327 ft 321 kts 144°
2026-05-06 19:11 45.76138 8.76606 12848 ft 318 kts 152°
2026-05-06 19:11 45.74207 8.78116 12373 ft 316 kts 155°
2026-05-06 19:11 45.72271 8.79600 11918 ft 315 kts 154°
2026-05-06 19:11 45.70355 8.81076 11608 ft 309 kts 154°
2026-05-06 19:12 45.68484 8.82521 11355 ft 302 kts 154°
2026-05-06 19:12 45.66650 8.83937 11106 ft 296 kts 154°
2026-05-06 19:12 45.64850 8.85321 10849 ft 291 kts 154°
2026-05-06 19:12 45.63080 8.86678 10578 ft 287 kts 154°
2026-05-06 19:13 45.61277 8.87792 10303 ft 279 kts 167°
2026-05-06 19:13 45.59394 8.88337 10036 ft 274 kts 172°
2026-05-06 19:13 45.57544 8.88834 9893 ft 266 kts 172°
2026-05-06 19:13 45.55754 8.89322 9888 ft 260 kts 172°
2026-05-06 19:14 45.53979 8.89804 9893 ft 259 kts 172°
2026-05-06 19:14 45.52206 8.90287 9893 ft 259 kts 172°
2026-05-06 19:14 45.50434 8.90768 9894 ft 259 kts 172°
2026-05-06 19:14 45.48682 8.91248 9831 ft 253 kts 172°
2026-05-06 19:15 45.46922 8.91725 9301 ft 262 kts 172°
2026-05-06 19:15 45.45110 8.92213 8778 ft 268 kts 171°
2026-05-06 19:15 45.43256 8.92714 8251 ft 274 kts 171°
2026-05-06 19:15 45.41367 8.93227 7760 ft 279 kts 171°
2026-05-06 19:16 45.39449 8.93638 7255 ft 280 kts 181°
2026-05-06 19:16 45.37563 8.93016 6765 ft 281 kts 207°
2026-05-06 19:16 45.36086 8.91218 6326 ft 284 kts 233°
2026-05-06 19:16 45.35339 8.88630 5869 ft 288 kts 258°
2026-05-06 19:17 45.35240 8.85801 5481 ft 289 kts 275°
2026-05-06 19:17 45.35928 8.83130 5100 ft 292 kts 300°
2026-05-06 19:17 45.37329 8.81049 4822 ft 292 kts 323°
2026-05-06 19:17 45.39170 8.79908 4605 ft 288 kts 346°
2026-05-06 19:18 45.41104 8.79367 4393 ft 277 kts 348°
2026-05-06 19:18 45.42962 8.78869 4187 ft 267 kts 348°
2026-05-06 19:18 45.44734 8.78386 4010 ft 253 kts 348°
2026-05-06 19:18 45.46430 8.77921 3731 ft 245 kts 348°
2026-05-06 19:19 45.48068 8.77469 3421 ft 234 kts 348°
2026-05-06 19:19 45.49622 8.77041 3127 ft 220 kts 349°
2026-05-06 19:19 45.51075 8.76643 2839 ft 207 kts 349°
2026-05-06 19:19 45.52439 8.76266 2583 ft 193 kts 351°
2026-05-06 19:20 45.53718 8.75914 2327 ft 181 kts 349°
2026-05-06 19:20 45.54907 8.75585 2075 ft 167 kts 351°
2026-05-06 19:20 45.56005 8.75282 1865 ft 155 kts 352°
2026-05-06 19:20 45.57009 8.75009 1658 ft 139 kts 351°
2026-05-06 19:21 45.57933 8.74749 1481 ft 134 kts 353°
2026-05-06 19:21 45.58840 8.74503 1277 ft 130 kts 351°
2026-05-06 19:21 45.59728 8.74254 1095 ft 130 kts 352°
2026-05-06 19:21 45.60606 8.74015 948 ft 129 kts 351°
2026-05-06 19:22 45.61479 8.73765 819 ft 128 kts 351°
2026-05-06 19:22 45.62341 8.73536 745 ft 117 kts 351°
2026-05-06 19:22 45.63022 8.73350 737 ft 78 kts 349°
2026-05-06 19:22 45.63424 8.73239 738 ft 54 kts 349°
2026-05-06 19:23 45.63687 8.73106 742 ft 28 kts 321°
2026-05-06 19:23 45.63785 8.72971 741 ft 16 kts 309°
2026-05-06 19:23 45.63834 8.72873 741 ft 8 kts 303°
2026-05-06 19:23 45.63872 8.72791 740 ft 11 kts 304°
2026-05-06 19:24 45.63922 8.72689 741 ft 14 kts 303°
2026-05-06 19:24 45.63954 8.72562 741 ft 15 kts 269°
2026-05-06 19:24 45.63935 8.72405 739 ft 17 kts 259°
2026-05-06 19:24 45.63917 8.72238 741 ft 17 kts 267°
2026-05-06 19:25 45.63912 8.72077 740 ft 17 kts 267°
2026-05-06 19:25 45.63899 8.71919 741 ft 14 kts 256°
2026-05-06 19:25 45.63826 8.71825 740 ft 16 kts 190°
2026-05-06 19:25 45.63708 8.71850 740 ft 19 kts 169°
2026-05-06 19:26 45.63574 8.71887 741 ft 19 kts 169°
2026-05-06 19:26 45.63479 8.71913 741 ft 14 kts 170°
2026-05-06 19:26 45.63428 8.71835 741 ft 8 kts 254°